Simultaneous Nadir Overpasses (SNOs) Predictions

Prediction of SNOs between GOES-17 and METOP-C Satellite Orbit:

Table of predicted SNOs for the next 14.0 days since TLE Epoch: 3/7/2025
Index Date Time (GOES-17) GOES-17 Lat,Lon METOP-C Lat,Lon Distance(km) Time Diff (sec)
1 03/08/2025 16:43:59 -0.00,-104.41 0.76,-107.81 387.11 80
2 03/09/2025 16:20:41 -0.00,-104.41 -0.37,-102.82 181.37 80
3 03/11/2025 04:39:42 0.00,-104.39 -0.67,-107.42 345.44 80
4 03/12/2025 04:21:44 0.01,-104.39 0.46,-102.44 223.52 80
5 03/13/2025 16:40:36 -0.01,-104.42 0.55,-107.00 293.82 80
6 03/14/2025 16:17:16 -0.01,-104.42 -0.53,-102.01 275.26 80
7 03/16/2025 04:36:18 0.01,-104.41 -0.49,-106.61 250.88 80
8 03/17/2025 04:18:19 0.01,-104.41 0.65,-101.62 318.36 80
9 03/18/2025 16:37:11 -0.01,-104.44 0.35,-106.19 198.82 80
10 03/19/2025 16:13:52 -0.01,-104.44 -0.73,-101.19 370.18 80
11 03/21/2025 04:32:53 0.01,-104.42 -0.27,-105.80 156.37 80
